Regional Weather Roundup
Issued by NWS Kansas City/Pleasant Hill, MO

Home | Current Version | Previous Version | Text Only | Print | Product List | Glossary On
Versions: 1 2 3 4 5 6 7 8 9 10 11 12 13 14 15 16 17 18 19 20 21 22 23 24 25 26 27
000
ASUS43 KEAX 270410
RWREAX

WEATHER ROUNDUP FOR EASTERN KANSAS AND NORTHWEST MISSOURI
NATIONAL WEATHER SERVICE KANSAS CITY/PLEASANT HILL MO
1100 PM CDT FRI AUG 26 2016

KSZ040-057-103>105-MOZ028-029-037-043-270500-
...KANSAS CITY METROPOLITAN AREA...

CITY           SKY/WX    TMP DP  RH WIND       PRES   REMARKS
K.C. INTL      CLOUDY    69  67  93 S6        30.04S
K.C. DOWNTOWN  RAIN      72  69  90 S7        30.04R
LEES SUMMIT    CLOUDY    71  67  87 N3        30.06S
OLATHE - IXD   RAIN      71  70  96 N3        30.05F FOG
OLATHE - OJC   CLOUDY   N/A N/A N/A NE7       30.05S
LAWRENCE       CLOUDY    71  70  96 E5        30.04S

$$

MOZ001>008-011>017-020>025-030>033-038>040-044>046-053-054-270500-
...NORTHERN AND CENTRAL MISSOURI...

CITY           SKY/WX    TMP DP  RH WIND       PRES   REMARKS
ST. JOSEPH     CLOUDY    69  68  96 CALM      30.03F FOG
MOSBY          CLOUDY    68  68 100 S8        30.03F
WHITEMAN AFB   CLOUDY    73  73 100 SW3       30.04F
CLINTON        CLOUDY    72  72 100 CALM      30.06R
SEDALIA        MOCLDY    74  72  93 W6        30.05F
WARSAW         NOT AVBL
CHILLICOTHE      N/A     70  68  93 S10G18    30.03S
KIRKSVILLE     CLOUDY    72  70  93 NE5       30.05F

$$

MOZ041-047>049-056>058-063>065-088>090-097-270500-
...EASTERN AND SOUTHERN MISSOURI...

CITY           SKY/WX    TMP DP  RH WIND       PRES   REMARKS
ST. LOUIS INTL MOCLDY    82  71  69 S9        30.05S
SPIRIT OF STL  CLOUDY    79  73  82 S5        30.03F
COLUMBIA       CLOUDY    76  73  91 SE7       30.03F
JEFFERSON CITY CLOUDY    74  71  91 E3        30.02F
ROLLA          CLOUDY    74  71  91 SE10      30.03F
OSAGE BEACH    CLOUDY    72  70  93 CALM      30.05R
SPRINGFIELD    PTCLDY    76  71  85 S6        30.05R
BRANSON        MOCLDY    75  72  88 CALM      30.07S
JOPLIN         PTCLDY    72  69  90 SE5       30.04R
WEST PLAINS    CLOUDY    74  68  81 VRB3      30.10F

$$

IAZ060-094-KSZ022-034>040-054-083-096-NEZ052-066-093-270500-
...KANSAS...SOUTHEAST NEBRASKA AND IOWA...

CITY           SKY/WX    TMP DP  RH WIND       PRES   REMARKS
TOPEKA         CLOUDY    70  68  93 E5        30.03F
MANHATTAN      CLEAR     68  67  96 CALM      30.02F
EMPORIA        PTCLDY    71  68  90 S7        30.02F
CHANUTE        PTCLDY    72  69  90 S5        30.02S
WICHITA        PTCLDY    74  69  85 S9        30.02R
OMAHA          CLOUDY    67  62  84 SE3       30.06F
LINCOLN        CLOUDY    68  65  90 E7        30.05F
FALLS CITY     CLOUDY    68  67  96 N3        30.03F FOG
LAMONI         CLOUDY    69  69 100 NE8       30.03F
DES MOINES     LGT RAIN  66  63  90 NE12      30.06F

$$





USA.gov is the U.S. government's official web portal to all federal, state and local government web resources and services.